Regional Weather Roundup
Issued by NWS Midland/Odessa, TX

Skip options and go directly to product.
Home | Oldest Version | Previous Version | Current Version | All | Text Only | Save Text | Print | Product List | Glossary On

Skip product version selection by date and time.   
351
ASUS44 KMAF 200310
RWRMAF
MIDLAND AREA WEATHER ROUNDUP
NATIONAL WEATHER SERVICE MIDLAND TX
1000 PM CDT FRI SEP 19 2014

...IN SOUTHWEST TEXAS AND SOUTHEAST NEW MEXICO...

CITY           SKY/WX    TMP DP  RH WIND       PRES   REMARKS
ALPINE         MOCLDY    68  63  82 SE3       30.10R
ANDREWS        CLOUDY    71  68  92 E9        29.99S
ARTESIA        NOT AVBL
BIG SPRING     CLOUDY    74  70  87 E6        29.99R
CARLSBAD       RAIN      71 N/A N/A N8        29.98R
DRYDEN           N/A     86  69  56 SE13      29.91R
FORT STOCKTON  CLOUDY    74  68  81 SE9       29.96R
GUAD PASS      FOG       66  66 100 NE18        N/A  VSB 1/4
HOBBS          MOCLDY    66  66 100 NE6       30.02R FOG
MARFA          PTCLDY    68  64  88 NE3       30.08R
MIDLAND AIRPK  NOT AVBL
MIDLAND INTL   MOCLDY    72  69  90 SE12      29.97R
ODESSA         CLOUDY    73  68  84 SE13      29.98R
PECOS          CLOUDY    73  69  85 E16G26    29.95R THUNDER
PRESIDIO       FAIR      86  65  48 NE3       29.88R
SEMINOLE       CLOUDY    69  68  98 CALM      30.02R FOG
SNYDER         CLOUDY    72  69  90 CALM      30.00R
WINK           CLOUDY    75  70  84 E8        29.95R
$$
...OTHER STATIONS IN TEXAS...

CITY           SKY/WX    TMP DP  RH WIND       PRES   REMARKS
ABILENE        CLOUDY    76  70  82 S8        29.97R
AMARILLO       PTCLDY    68  64  87 S12       30.04R
AUSTIN         MOCLDY    75  73  93 SE3       29.93R
BROWNSVILLE    MOCLDY    82  79  90 SE6       29.85R
CORPUS CHRISTI MOCLDY    81  76  84 E10       29.87R
DALLAS FTW     MOCLDY    82  68  62 SE12      29.94R
DEL RIO        MOCLDY    82  72  71 E8        29.87R
EL PASO        PTCLDY    75  65  70 E3        29.97R
HOUSTON INT    MOCLDY    75  73  93 E6        29.92R
LUBBOCK        LGT RAIN  69  67  93 SE6       30.02R
SAN ANGELO     MOCLDY    73  70  90 E5        29.96R
SAN ANTONIO    MOCLDY    81  72  74 E8        29.91R
WACO           MOCLDY    77  71  82 E6        29.93R
WICHITA FALLS  NOT AVBL
$$
...OTHER LOCATIONS IN NEW MEXICO...

CITY           SKY/WX    TMP DP  RH WIND       PRES   REMARKS
ALAMAGORDO     CLEAR     70  66  88 SE3       30.00R
ALBUQUERQUE    PTCLDY    73  57  57 SE7       30.06R
CANNON AFB     MOCLDY    66 N/A N/A SE8       30.07R
CLOVIS           N/A     64  63  94 SE9       30.08R
HOLLOMAN AFB   CLEAR     72  66  80 W3        29.98R
ROSWELL        MOCLDY    68  66  93 CALM      30.02R
RUIDOSO        CLOUDY    59  59 100 S5        30.21R
SANTA FE       PTCLDY    68  55  63 SE14      30.13R
TRUTH OR CONSE CLEAR     73  64  73 E3        30.03R
TUCUMCARI      MOCLDY    69  61  75 S6        30.03R
$$

USA.gov is the U.S. government's official web portal to all federal, state and local government web resources and services.